Location: Veytaux
(46.4185°N, 6.9320°E)
Time: 09:08:54
(UTC+00:00)

CZ-2D R/B - Pass Details

Date: 27 May 2022
Orbit: 791 x 845 km, 98.7° (Epoch: 01 July)

Event Time Altitude Azimuth Distance (km) Brightness Sun altitude
Rises 00:30:57 0° 21° (NNE) 3,376 6.9 -20.9°
Reaches altitude 10° 00:33:31 10° 30° (NNE) 2,429 5.7 -20.8°
Maximum altitude 00:38:27 36° 96° (E) 1,264 3.2 -20.5°
Enters shadow 00:40:55 24° 145° (SE) 1,627 3.3 -20.4°
